Location: Maccacari
(45.1333°N, 11.1333°E)
Time: 16:32:04
(UTC+00:00)

SR - Pass Details

Date: 20 June 2021
Orbit: 577 x 878 km, 66.7° (Epoch: 24 July)

Event Time Altitude Azimuth Distance (km) Brightness Sun altitude
Rises 23:27:18 0° 330° (NNW) 3,324 ? -21.4°
Reaches altitude 10° 23:29:57 10° 337° (NNW) 2,343 ? -21.4°
Maximum altitude 23:35:02 43° 49° (NE) 1,024 ? -21.3°
Enters shadow 23:38:38 16° 116° (ESE) 1,771 ? -21.3°
